contact:dominique.lefevre@mio.osupytheas.fr, maurice.libes@osupytheas.fr, didier.mallarino@osupytheas.fr
Project:EMSO http://www.emso-fr.org/EMSO-France
Depth: 2436.0 m
Title:EMSO Ligure Ouest : Data MII capteur CSTAR
DateTime,Latitude,Longitude,Instrument_Serial,Reference_Counts,Signal_Counts,Corrected_Signal_raw_counts,Calculated_Beam_c_inverse_meters,Internal_thermistor_counts
DateTime,Latitude,Longitude,Instrument_Serial,Reference_Counts,Signal_Counts,Corrected_Signal_raw_counts,Calculated_Beam_c_inverse_meters,Internal_thermistor_counts
2024-04-05T00:01:48,42.805,6.029,CST-1368DR,4106,4294,11082,01.372,553
2024-04-05T00:04:50,42.805,6.029,CST-1368DR,4106,4293,11080,01.373,553
2024-04-05T00:07:51,42.805,6.029,CST-1368DR,4106,4291,11073,01.375,553
2024-04-05T00:10:53,42.805,6.029,CST-1368DR,4106,4294,11082,01.372,553
2024-04-05T00:13:55,42.805,6.029,CST-1368DR,4106,4293,11079,01.373,553
2024-04-05T00:16:56,42.805,6.029,CST-1368DR,4106,4295,11085,01.371,553
2024-04-05T00:19:58,42.805,6.029,CST-1368DR,4106,4292,11077,01.374,553
2024-04-05T00:22:59,42.805,6.029,CST-1368DR,4106,4292,11077,01.374,553
2024-04-05T00:26:01,42.805,6.029,CST-1368DR,4106,4291,11074,01.375,553
2024-04-05T00:29:02,42.805,6.029,CST-1368DR,4106,4292,11077,01.374,553
2024-04-05T00:32:04,42.805,6.029,CST-1368DR,4106,4293,11078,01.373,553
2024-04-05T00:35:06,42.805,6.029,CST-1368DR,4106,4293,11078,01.373,553
2024-04-05T00:38:07,42.805,6.029,CST-1368DR,4106,4292,11077,01.374,553
2024-04-05T00:41:09,42.805,6.029,CST-1368DR,4106,4276,11037,01.388,553
2024-04-05T00:44:10,42.805,6.029,CST-1368DR,4106,4293,11080,01.373,553
2024-04-05T00:47:12,42.805,6.029,CST-1368DR,4106,4292,11077,01.374,553
2024-04-05T00:50:14,42.805,6.029,CST-1368DR,4106,4292,11077,01.374,553
2024-04-05T00:53:15,42.805,6.029,CST-1368DR,4106,4293,11078,01.373,553
2024-04-05T00:56:17,42.805,6.029,CST-1368DR,4106,4291,11075,01.374,553
2024-04-05T00:59:18,42.805,6.029,CST-1368DR,4106,4293,11078,01.373,553
2024-04-05T01:02:20,42.805,6.029,CST-1368DR,4106,4293,11079,01.373,553
2024-04-05T01:05:21,42.805,6.029,CST-1368DR,4106,4293,11079,01.373,553
2024-04-05T01:08:23,42.805,6.029,CST-1368DR,4106,4293,11079,01.373,553
2024-04-05T01:11:25,42.805,6.029,CST-1368DR,4106,4293,11080,01.373,553
2024-04-05T01:14:26,42.805,6.029,CST-1368DR,4106,4293,11078,01.373,553
2024-04-05T01:17:28,42.805,6.029,CST-1368DR,4106,4292,11077,01.374,553
2024-04-05T01:20:29,42.805,6.029,CST-1368DR,4106,4292,11076,01.374,553
2024-04-05T01:23:31,42.805,6.029,CST-1368DR,4106,4293,11080,01.373,553
2024-04-05T01:26:32,42.805,6.029,CST-1368DR,4106,4294,11082,01.372,553
2024-04-05T01:29:34,42.805,6.029,CST-1368DR,4106,4295,11084,01.371,553
2024-04-05T01:32:36,42.805,6.029,CST-1368DR,4106,4291,11075,01.374,553
2024-04-05T01:35:37,42.805,6.029,CST-1368DR,4106,4293,11079,01.373,553
2024-04-05T01:38:39,42.805,6.029,CST-1368DR,4106,4289,11070,01.376,553
2024-04-05T01:41:40,42.805,6.029,CST-1368DR,4106,4295,11084,01.371,553
2024-04-05T01:44:42,42.805,6.029,CST-1368DR,4106,4292,11077,01.374,553
2024-04-05T01:47:44,42.805,6.029,CST-1368DR,4106,4293,11079,01.373,553
2024-04-05T01:50:45,42.805,6.029,CST-1368DR,4106,4292,11077,01.374,553
2024-04-05T01:53:47,42.805,6.029,CST-1368DR,4106,4293,11079,01.373,553
2024-04-05T01:56:48,42.805,6.029,CST-1368DR,4106,4291,11075,01.374,553
2024-04-05T01:59:50,42.805,6.029,CST-1368DR,4106,4293,11078,01.373,553
2024-04-05T02:02:51,42.805,6.029,CST-1368DR,4106,4292,11076,01.374,553
2024-04-05T02:05:53,42.805,6.029,CST-1368DR,4106,4292,11077,01.374,553
2024-04-05T02:08:55,42.805,6.029,CST-1368DR,4106,4291,11075,01.374,553
2024-04-05T02:11:56,42.805,6.029,CST-1368DR,4106,4292,11077,01.374,553
2024-04-05T02:14:58,42.805,6.029,CST-1368DR,4106,4291,11075,01.374,553
2024-04-05T02:17:59,42.805,6.029,CST-1368DR,4106,4293,11080,01.373,553
2024-04-05T02:21:01,42.805,6.029,CST-1368DR,4106,4292,11077,01.374,553
2024-04-05T02:24:02,42.805,6.029,CST-1368DR,4106,4293,11079,01.373,553
2024-04-05T02:27:04,42.805,6.029,CST-1368DR,4106,4294,11081,01.372,553
2024-04-05T02:30:06,42.805,6.029,CST-1368DR,4106,4292,11077,01.374,553
2024-04-05T02:33:07,42.805,6.029,CST-1368DR,4106,4293,11078,01.373,553
2024-04-05T02:36:09,42.805,6.029,CST-1368DR,4106,4292,11076,01.374,553
2024-04-05T02:39:10,42.805,6.029,CST-1368DR,4106,4293,11078,01.373,553
2024-04-05T02:42:12,42.805,6.029,CST-1368DR,4106,4292,11076,01.374,553
2024-04-05T02:45:14,42.805,6.029,CST-1368DR,4106,4295,11084,01.371,553
2024-04-05T02:48:15,42.805,6.029,CST-1368DR,4106,4293,11078,01.373,553
2024-04-05T02:51:17,42.805,6.029,CST-1368DR,4106,4291,11075,01.374,553
2024-04-05T02:54:18,42.805,6.029,CST-1368DR,4106,4293,11079,01.373,553
2024-04-05T02:57:20,42.805,6.029,CST-1368DR,4106,4293,11078,01.373,553
2024-04-05T03:00:21,42.805,6.029,CST-1368DR,4106,4293,11078,01.373,553
2024-04-05T03:03:23,42.805,6.029,CST-1368DR,4106,4293,11080,01.373,553
2024-04-05T03:06:25,42.805,6.029,CST-1368DR,4106,4293,11079,01.373,553
2024-04-05T03:09:26,42.805,6.029,CST-1368DR,4106,4293,11080,01.373,553
2024-04-05T03:12:28,42.805,6.029,CST-1368DR,4106,4292,11077,01.374,553
2024-04-05T03:15:29,42.805,6.029,CST-1368DR,4106,4293,11080,01.373,553
2024-04-05T03:18:31,42.805,6.029,CST-1368DR,4106,4295,11084,01.371,553
2024-04-05T03:21:32,42.805,6.029,CST-1368DR,4106,4292,11077,01.374,553
2024-04-05T03:24:34,42.805,6.029,CST-1368DR,4106,4293,11079,01.373,553
2024-04-05T03:27:36,42.805,6.029,CST-1368DR,4106,4294,11081,01.372,553
2024-04-05T03:30:37,42.805,6.029,CST-1368DR,4106,4293,11080,01.373,553
2024-04-05T03:33:39,42.805,6.029,CST-1368DR,4106,4291,11073,01.375,553
2024-04-05T03:36:40,42.805,6.029,CST-1368DR,4106,4290,11072,01.376,553
2024-04-05T03:39:42,42.805,6.029,CST-1368DR,4106,4293,11079,01.373,553
2024-04-05T03:42:43,42.805,6.029,CST-1368DR,4106,4292,11077,01.374,553
2024-04-05T03:45:45,42.805,6.029,CST-1368DR,4106,4291,11074,01.375,553
2024-04-05T03:48:47,42.805,6.029,CST-1368DR,4106,4293,11078,01.373,553
2024-04-05T03:51:48,42.805,6.029,CST-1368DR,4106,4291,11074,01.375,553
2024-04-05T03:54:50,42.805,6.029,CST-1368DR,4106,4292,11076,01.374,553
2024-04-05T03:57:51,42.805,6.029,CST-1368DR,4106,4293,11078,01.373,553
2024-04-05T04:00:53,42.805,6.029,CST-1368DR,4106,4294,11083,01.372,553
2024-04-05T04:03:55,42.805,6.029,CST-1368DR,4106,4292,11077,01.374,553
2024-04-05T04:06:56,42.805,6.029,CST-1368DR,4106,4294,11082,01.372,553
2024-04-05T04:09:58,42.805,6.029,CST-1368DR,4106,4295,11084,01.371,553
2024-04-05T04:12:59,42.805,6.029,CST-1368DR,4106,4292,11077,01.374,553
2024-04-05T04:16:01,42.805,6.029,CST-1368DR,4106,4293,11078,01.373,553
2024-04-05T04:19:02,42.805,6.029,CST-1368DR,4106,4293,11078,01.373,553
2024-04-05T04:22:04,42.805,6.029,CST-1368DR,4106,4291,11075,01.374,553
2024-04-05T04:25:06,42.805,6.029,CST-1368DR,4106,4291,11074,01.375,553
2024-04-05T04:28:07,42.805,6.029,CST-1368DR,4106,4292,11077,01.374,553
2024-04-05T04:31:09,42.805,6.029,CST-1368DR,4106,4294,11082,01.372,553
2024-04-05T04:34:10,42.805,6.029,CST-1368DR,4106,4294,11082,01.372,553
2024-04-05T04:37:12,42.805,6.029,CST-1368DR,4106,4293,11080,01.373,553
2024-04-05T04:40:13,42.805,6.029,CST-1368DR,4106,4294,11082,01.372,553
2024-04-05T04:43:15,42.805,6.029,CST-1368DR,4106,4293,11078,01.373,553
2024-04-05T04:46:17,42.805,6.029,CST-1368DR,4106,4294,11082,01.372,553
2024-04-05T04:49:18,42.805,6.029,CST-1368DR,4106,4293,11080,01.373,553
2024-04-05T04:52:20,42.805,6.029,CST-1368DR,4106,4280,11046,01.385,553
2024-04-05T04:55:21,42.805,6.029,CST-1368DR,4106,4283,11053,01.382,553
2024-04-05T04:58:23,42.805,6.029,CST-1368DR,4106,4282,11051,01.383,553
2024-04-05T05:01:25,42.805,6.029,CST-1368DR,4106,4284,11055,01.382,553
2024-04-05T05:04:26,42.805,6.029,CST-1368DR,4106,4281,11047,01.385,553
2024-04-05T05:07:28,42.805,6.029,CST-1368DR,4106,4281,11049,01.384,553
2024-04-05T05:10:29,42.805,6.029,CST-1368DR,4106,4280,11047,01.385,553
2024-04-05T05:13:31,42.805,6.029,CST-1368DR,4106,4278,11040,01.387,553
2024-04-05T05:16:32,42.805,6.029,CST-1368DR,4106,4276,11037,01.388,553
2024-04-05T05:19:34,42.805,6.029,CST-1368DR,4106,4280,11045,01.385,553
2024-04-05T05:22:36,42.805,6.029,CST-1368DR,4106,4276,11035,01.389,553
2024-04-05T05:25:37,42.805,6.029,CST-1368DR,4106,4281,11048,01.384,553
2024-04-05T05:28:39,42.805,6.029,CST-1368DR,4106,4280,11046,01.385,553
2024-04-05T05:31:40,42.805,6.029,CST-1368DR,4106,4282,11050,01.383,553
2024-04-05T05:34:42,42.805,6.029,CST-1368DR,4106,4280,11046,01.385,553
2024-04-05T05:37:43,42.805,6.029,CST-1368DR,4106,4280,11045,01.385,553
2024-04-05T05:40:45,42.805,6.029,CST-1368DR,4106,4282,11051,01.383,553
2024-04-05T05:43:47,42.805,6.029,CST-1368DR,4106,4281,11049,01.384,553
2024-04-05T05:46:48,42.805,6.029,CST-1368DR,4106,4279,11042,01.386,553
2024-04-05T05:49:50,42.805,6.029,CST-1368DR,4106,4283,11053,01.382,553
2024-04-05T05:52:51,42.805,6.029,CST-1368DR,4106,4278,11042,01.386,553
2024-04-05T05:55:53,42.805,6.029,CST-1368DR,4106,4281,11049,01.384,553
2024-04-05T05:58:55,42.805,6.029,CST-1368DR,4106,4277,11038,01.388,553
2024-04-05T06:01:56,42.805,6.029,CST-1368DR,4106,4280,11047,01.385,553
2024-04-05T06:04:58,42.805,6.029,CST-1368DR,4106,4280,11046,01.385,553
2024-04-05T06:07:59,42.805,6.029,CST-1368DR,4106,4281,11047,01.385,553
2024-04-05T06:11:01,42.805,6.029,CST-1368DR,4106,4287,11064,01.378,553
2024-04-05T06:14:02,42.805,6.029,CST-1368DR,4106,4281,11049,01.384,553
2024-04-05T06:17:04,42.805,6.029,CST-1368DR,4106,4281,11049,01.384,553
2024-04-05T06:20:06,42.805,6.029,CST-1368DR,4106,4280,11047,01.385,553
2024-04-05T06:23:07,42.805,6.029,CST-1368DR,4106,4281,11049,01.384,553
2024-04-05T06:26:09,42.805,6.029,CST-1368DR,4106,4280,11045,01.385,553
2024-04-05T06:29:10,42.805,6.029,CST-1368DR,4106,4281,11048,01.384,553
2024-04-05T06:32:12,42.805,6.029,CST-1368DR,4106,4282,11051,01.383,553
2024-04-05T06:35:13,42.805,6.029,CST-1368DR,4106,4279,11042,01.386,553
2024-04-05T06:38:15,42.805,6.029,CST-1368DR,4106,4280,11047,01.385,553
2024-04-05T06:41:17,42.805,6.029,CST-1368DR,4106,4281,11049,01.384,553
2024-04-05T06:44:18,42.805,6.029,CST-1368DR,4106,4280,11046,01.385,553
2024-04-05T06:47:20,42.805,6.029,CST-1368DR,4106,4281,11047,01.385,553
2024-04-05T06:50:21,42.805,6.029,CST-1368DR,4106,4283,11053,01.382,553
2024-04-05T06:53:23,42.805,6.029,CST-1368DR,4106,4281,11049,01.384,553
2024-04-05T06:56:25,42.805,6.029,CST-1368DR,4106,4282,11051,01.383,553
2024-04-05T06:59:26,42.805,6.029,CST-1368DR,4106,4278,11041,01.387,553
2024-04-05T07:02:28,42.805,6.029,CST-1368DR,4106,4279,11044,01.386,553
2024-04-05T07:05:29,42.805,6.029,CST-1368DR,4106,4281,11048,01.384,553
2024-04-05T07:08:31,42.805,6.029,CST-1368DR,4106,4281,11047,01.385,553
2024-04-05T07:11:32,42.805,6.029,CST-1368DR,4106,4281,11049,01.384,553
2024-04-05T07:14:34,42.805,6.029,CST-1368DR,4106,4280,11046,01.385,553
2024-04-05T07:17:36,42.805,6.029,CST-1368DR,4106,4280,11046,01.385,553
2024-04-05T07:20:37,42.805,6.029,CST-1368DR,4106,4280,11045,01.385,553
2024-04-05T07:23:39,42.805,6.029,CST-1368DR,4106,4281,11047,01.385,553
2024-04-05T07:26:40,42.805,6.029,CST-1368DR,4106,4280,11046,01.385,553
2024-04-05T07:29:42,42.805,6.029,CST-1368DR,4106,4279,11042,01.386,553
2024-04-05T07:32:43,42.805,6.029,CST-1368DR,4106,4279,11044,01.386,553
2024-04-05T07:35:45,42.805,6.029,CST-1368DR,4106,4280,11045,01.385,553
2024-04-05T07:38:47,42.805,6.029,CST-1368DR,4106,4281,11047,01.385,553
2024-04-05T07:41:48,42.805,6.029,CST-1368DR,4106,4279,11044,01.386,553
2024-04-05T07:44:50,42.805,6.029,CST-1368DR,4106,4279,11042,01.386,553
2024-04-05T07:47:51,42.805,6.029,CST-1368DR,4106,4280,11046,01.385,553
2024-04-05T07:50:53,42.805,6.029,CST-1368DR,4106,4277,11039,01.387,553
2024-04-05T07:53:55,42.805,6.029,CST-1368DR,4106,4283,11053,01.382,553
2024-04-05T07:56:56,42.805,6.029,CST-1368DR,4106,4285,11059,01.380,553
2024-04-05T07:59:58,42.805,6.029,CST-1368DR,4106,4281,11049,01.384,553
2024-04-05T08:02:59,42.805,6.029,CST-1368DR,4106,4277,11038,01.388,553
2024-04-05T08:06:01,42.805,6.029,CST-1368DR,4106,4280,11047,01.385,553
2024-04-05T08:09:02,42.805,6.029,CST-1368DR,4106,4280,11046,01.385,553
2024-04-05T08:12:04,42.805,6.029,CST-1368DR,4106,4279,11044,01.386,553
2024-04-05T08:15:06,42.805,6.029,CST-1368DR,4106,4280,11046,01.385,553
2024-04-05T08:18:07,42.805,6.029,CST-1368DR,4106,4280,11047,01.385,553
2024-04-05T08:21:09,42.805,6.029,CST-1368DR,4106,4278,11040,01.387,553
2024-04-05T08:24:10,42.805,6.029,CST-1368DR,4106,4280,11045,01.385,553
2024-04-05T08:27:12,42.805,6.029,CST-1368DR,4106,4280,11046,01.385,553
2024-04-05T08:30:13,42.805,6.029,CST-1368DR,4106,4278,11040,01.387,553
2024-04-05T08:33:15,42.805,6.029,CST-1368DR,4106,4279,11042,01.386,553
2024-04-05T08:36:17,42.805,6.029,CST-1368DR,4106,4289,11068,01.377,553
2024-04-05T08:39:18,42.805,6.029,CST-1368DR,4106,4290,11072,01.376,553
2024-04-05T08:42:20,42.805,6.029,CST-1368DR,4106,4285,11059,01.380,553
2024-04-05T08:45:21,42.805,6.029,CST-1368DR,4106,4288,11067,01.377,553
2024-04-05T08:48:23,42.805,6.029,CST-1368DR,4106,4287,11064,01.378,553
2024-04-05T08:51:24,42.805,6.029,CST-1368DR,4106,4290,11073,01.375,553
2024-04-05T08:54:26,42.805,6.029,CST-1368DR,4106,4287,11064,01.378,553
2024-04-05T08:57:28,42.805,6.029,CST-1368DR,4106,4287,11064,01.378,553
2024-04-05T09:00:29,42.805,6.029,CST-1368DR,4106,4292,11076,01.374,553
2024-04-05T09:03:31,42.805,6.029,CST-1368DR,4106,4289,11068,01.377,553
2024-04-05T09:06:32,42.805,6.029,CST-1368DR,4106,4287,11065,01.378,553
2024-04-05T09:09:34,42.805,6.029,CST-1368DR,4106,4288,11066,01.378,553
2024-04-05T09:12:36,42.805,6.029,CST-1368DR,4106,4288,11067,01.377,553
2024-04-05T09:15:37,42.805,6.029,CST-1368DR,4106,4288,11067,01.377,553
2024-04-05T09:18:39,42.805,6.029,CST-1368DR,4106,4286,11062,01.379,553
2024-04-05T09:21:40,42.805,6.029,CST-1368DR,4106,4284,11055,01.382,553
2024-04-05T09:24:42,42.805,6.029,CST-1368DR,4106,4288,11066,01.378,553
2024-04-05T09:27:43,42.805,6.029,CST-1368DR,4106,4289,11069,01.377,553
2024-04-05T09:30:45,42.805,6.029,CST-1368DR,4106,4285,11059,01.380,553
2024-04-05T09:33:47,42.805,6.029,CST-1368DR,4106,4288,11067,01.377,553
2024-04-05T09:36:48,42.805,6.029,CST-1368DR,4106,4290,11072,01.376,553
2024-04-05T09:39:50,42.805,6.029,CST-1368DR,4106,4291,11073,01.375,553
2024-04-05T09:42:51,42.805,6.029,CST-1368DR,4106,4284,11057,01.381,553
2024-04-05T09:45:53,42.805,6.029,CST-1368DR,4106,4291,11075,01.374,553
2024-04-05T09:48:54,42.805,6.029,CST-1368DR,4106,4292,11076,01.374,553
2024-04-05T09:51:56,42.805,6.029,CST-1368DR,4106,4290,11072,01.376,553
2024-04-05T09:54:58,42.805,6.029,CST-1368DR,4106,4291,11073,01.375,553
2024-04-05T09:57:59,42.805,6.029,CST-1368DR,4106,4289,11069,01.377,553
2024-04-05T10:01:01,42.805,6.029,CST-1368DR,4106,4289,11069,01.377,553
2024-04-05T10:04:02,42.805,6.029,CST-1368DR,4106,4291,11075,01.374,553
2024-04-05T10:07:04,42.805,6.029,CST-1368DR,4106,4290,11072,01.376,553
2024-04-05T10:10:06,42.805,6.029,CST-1368DR,4106,4291,11073,01.375,553
2024-04-05T10:13:07,42.805,6.029,CST-1368DR,4106,4288,11066,01.378,553
2024-04-05T10:16:09,42.805,6.029,CST-1368DR,4106,4288,11067,01.377,553
2024-04-05T10:19:10,42.805,6.029,CST-1368DR,4106,4287,11063,01.379,553
2024-04-05T10:22:12,42.805,6.029,CST-1368DR,4106,4289,11069,01.377,553
2024-04-05T10:25:13,42.805,6.029,CST-1368DR,4106,4288,11066,01.378,553
2024-04-05T10:28:15,42.805,6.029,CST-1368DR,4106,4290,11071,01.376,553
2024-04-05T10:31:17,42.805,6.029,CST-1368DR,4106,4287,11063,01.379,553
2024-04-05T10:34:18,42.805,6.029,CST-1368DR,4106,4286,11062,01.379,553
2024-04-05T10:37:20,42.805,6.029,CST-1368DR,4106,4288,11066,01.378,553
2024-04-05T10:40:21,42.805,6.029,CST-1368DR,4106,4291,11075,01.374,553
2024-04-05T10:43:23,42.805,6.029,CST-1368DR,4106,4288,11066,01.378,553
2024-04-05T10:46:24,42.805,6.029,CST-1368DR,4106,4289,11069,01.377,553
2024-04-05T10:49:26,42.805,6.029,CST-1368DR,4106,4289,11068,01.377,553
2024-04-05T10:52:28,42.805,6.029,CST-1368DR,4106,4286,11062,01.379,553
2024-04-05T10:55:29,42.805,6.029,CST-1368DR,4106,4286,11062,01.379,553
2024-04-05T10:58:31,42.805,6.029,CST-1368DR,4106,4287,11064,01.378,553
2024-04-05T11:01:32,42.805,6.029,CST-1368DR,4106,4290,11072,01.376,553
2024-04-05T11:04:34,42.805,6.029,CST-1368DR,4105,4287,11066,01.378,553
2024-04-05T11:07:36,42.805,6.029,CST-1368DR,4106,4284,11056,01.381,553
2024-04-05T11:10:37,42.805,6.029,CST-1368DR,4105,4288,11069,01.377,553
2024-04-05T11:13:39,42.805,6.029,CST-1368DR,4106,4287,11064,01.378,553
2024-04-05T11:16:40,42.805,6.029,CST-1368DR,4105,4284,11060,01.380,553
2024-04-05T11:19:42,42.805,6.029,CST-1368DR,4105,4285,11061,01.379,553
2024-04-05T11:22:43,42.805,6.029,CST-1368DR,4105,4287,11066,01.378,553
2024-04-05T11:25:45,42.805,6.029,CST-1368DR,4106,4288,11067,01.377,553
2024-04-05T11:28:47,42.805,6.029,CST-1368DR,4106,4288,11066,01.378,553
2024-04-05T11:31:48,42.805,6.029,CST-1368DR,4105,4288,11069,01.377,553
2024-04-05T11:34:50,42.805,6.029,CST-1368DR,4105,4289,11073,01.375,553
2024-04-05T11:37:51,42.805,6.029,CST-1368DR,4105,4288,11069,01.377,553
2024-04-05T11:40:53,42.805,6.029,CST-1368DR,4105,4290,11073,01.375,553
2024-04-05T11:43:54,42.805,6.029,CST-1368DR,4105,4287,11067,01.377,553
2024-04-05T11:46:56,42.805,6.029,CST-1368DR,4105,4287,11067,01.377,553
2024-04-05T11:49:58,42.805,6.029,CST-1368DR,4105,4288,11069,01.377,553
2024-04-05T11:52:59,42.805,6.029,CST-1368DR,4105,4289,11071,01.376,553
2024-04-05T11:56:01,42.805,6.029,CST-1368DR,4105,4287,11067,01.377,553
2024-04-05T11:59:02,42.805,6.029,CST-1368DR,4105,4285,11062,01.379,553
2024-04-05T12:02:04,42.805,6.029,CST-1368DR,4105,4288,11069,01.377,553
2024-04-05T12:05:06,42.805,6.029,CST-1368DR,4105,4286,11064,01.378,553
2024-04-05T12:08:07,42.805,6.029,CST-1368DR,4105,4290,11074,01.375,553
2024-04-05T12:11:09,42.805,6.029,CST-1368DR,4105,4285,11061,01.379,553
2024-04-05T12:14:10,42.805,6.029,CST-1368DR,4105,4286,11065,01.378,553
2024-04-05T12:17:12,42.805,6.029,CST-1368DR,4105,4290,11074,01.375,553
2024-04-05T12:20:13,42.805,6.029,CST-1368DR,4105,4287,11066,01.378,553
2024-04-05T12:23:15,42.805,6.029,CST-1368DR,4105,4287,11066,01.378,553
2024-04-05T12:26:17,42.805,6.029,CST-1368DR,4105,4287,11067,01.377,553
2024-04-05T12:29:18,42.805,6.029,CST-1368DR,4105,4290,11073,01.375,553
2024-04-05T12:32:20,42.805,6.029,CST-1368DR,4105,4292,11078,01.373,553
2024-04-05T12:35:21,42.805,6.029,CST-1368DR,4105,4290,11073,01.375,553
2024-04-05T12:38:23,42.805,6.029,CST-1368DR,4105,4285,11062,01.379,553
2024-04-05T12:41:24,42.805,6.029,CST-1368DR,4105,4290,11073,01.375,553
2024-04-05T12:44:26,42.805,6.029,CST-1368DR,4105,4287,11067,01.377,553
2024-04-05T12:47:28,42.805,6.029,CST-1368DR,4105,4291,11076,01.374,553
2024-04-05T12:50:29,42.805,6.029,CST-1368DR,4105,4288,11069,01.377,553
2024-04-05T12:53:31,42.805,6.029,CST-1368DR,4105,4291,11076,01.374,553
2024-04-05T12:56:32,42.805,6.029,CST-1368DR,4105,4290,11075,01.374,553
2024-04-05T12:59:34,42.805,6.029,CST-1368DR,4105,4289,11071,01.376,553
2024-04-05T13:02:35,42.805,6.029,CST-1368DR,4105,4288,11068,01.377,553
2024-04-05T13:05:37,42.805,6.029,CST-1368DR,4105,4290,11073,01.375,553
2024-04-05T13:08:39,42.805,6.029,CST-1368DR,4105,4289,11073,01.375,553
2024-04-05T13:11:40,42.805,6.029,CST-1368DR,4105,4291,11076,01.374,553
2024-04-05T13:14:42,42.805,6.029,CST-1368DR,4105,4290,11075,01.374,553
2024-04-05T13:17:43,42.805,6.029,CST-1368DR,4105,4288,11068,01.377,553
2024-04-05T13:20:45,42.805,6.029,CST-1368DR,4105,4290,11075,01.374,553
2024-04-05T13:23:47,42.805,6.029,CST-1368DR,4105,4286,11064,01.378,553
2024-04-05T13:26:48,42.805,6.029,CST-1368DR,4105,4290,11075,01.374,553
2024-04-05T13:29:50,42.805,6.029,CST-1368DR,4105,4290,11074,01.375,553
2024-04-05T13:32:51,42.805,6.029,CST-1368DR,4105,4287,11067,01.377,553
2024-04-05T13:35:53,42.805,6.029,CST-1368DR,4105,4289,11071,01.376,553
2024-04-05T13:38:54,42.805,6.029,CST-1368DR,4105,4287,11066,01.378,553
2024-04-05T13:41:56,42.805,6.029,CST-1368DR,4105,4289,11073,01.375,553
2024-04-05T13:44:58,42.805,6.029,CST-1368DR,4105,4290,11073,01.375,553
2024-04-05T13:47:59,42.805,6.029,CST-1368DR,4105,4290,11074,01.375,553
2024-04-05T13:51:01,42.805,6.029,CST-1368DR,4105,4290,11074,01.375,553
2024-04-05T13:54:02,42.805,6.029,CST-1368DR,4105,4289,11071,01.376,553
2024-04-05T13:57:04,42.805,6.029,CST-1368DR,4105,4290,11073,01.375,553
2024-04-05T14:00:05,42.805,6.029,CST-1368DR,4105,4288,11069,01.377,553
2024-04-05T14:03:07,42.805,6.029,CST-1368DR,4105,4286,11064,01.378,553
2024-04-05T14:06:09,42.805,6.029,CST-1368DR,4105,4289,11071,01.376,553
2024-04-05T14:09:10,42.805,6.029,CST-1368DR,4105,4288,11068,01.377,553
2024-04-05T14:12:12,42.805,6.029,CST-1368DR,4105,4289,11073,01.375,553
2024-04-05T14:15:13,42.805,6.029,CST-1368DR,4105,4288,11070,01.376,553
2024-04-05T14:18:15,42.805,6.029,CST-1368DR,4105,4278,11044,01.386,553
2024-04-05T14:21:17,42.805,6.029,CST-1368DR,4105,4290,11073,01.375,553
2024-04-05T14:24:18,42.805,6.029,CST-1368DR,4105,4288,11070,01.376,553
2024-04-05T14:27:20,42.805,6.029,CST-1368DR,4105,4287,11067,01.377,553
2024-04-05T14:30:21,42.805,6.029,CST-1368DR,4105,4289,11073,01.375,553
2024-04-05T14:33:23,42.805,6.029,CST-1368DR,4105,4290,11073,01.375,553
2024-04-05T14:36:24,42.805,6.029,CST-1368DR,4105,4289,11071,01.376,553
2024-04-05T14:39:26,42.805,6.029,CST-1368DR,4105,4289,11071,01.376,553
2024-04-05T14:42:28,42.805,6.029,CST-1368DR,4105,4289,11071,01.376,553
2024-04-05T14:45:29,42.805,6.029,CST-1368DR,4105,4289,11071,01.376,553
2024-04-05T14:48:31,42.805,6.029,CST-1368DR,4105,4287,11067,01.377,553
2024-04-05T14:51:32,42.805,6.029,CST-1368DR,4105,4290,11074,01.375,553
2024-04-05T14:54:34,42.805,6.029,CST-1368DR,4105,4291,11077,01.374,553
2024-04-05T14:57:35,42.805,6.029,CST-1368DR,4105,4289,11071,01.376,553
2024-04-05T15:00:37,42.805,6.029,CST-1368DR,4105,4290,11073,01.375,553
2024-04-05T15:03:39,42.805,6.029,CST-1368DR,4105,4290,11074,01.375,553
2024-04-05T15:06:40,42.805,6.029,CST-1368DR,4105,4288,11069,01.377,553
2024-04-05T15:09:42,42.805,6.029,CST-1368DR,4105,4291,11077,01.374,553
2024-04-05T15:12:43,42.805,6.029,CST-1368DR,4105,4289,11071,01.376,553
2024-04-05T15:15:45,42.805,6.029,CST-1368DR,4105,4289,11073,01.375,553
2024-04-05T15:18:47,42.805,6.029,CST-1368DR,4105,4288,11070,01.376,553
2024-04-05T15:21:48,42.805,6.029,CST-1368DR,4105,4288,11069,01.377,553
2024-04-05T15:24:50,42.805,6.029,CST-1368DR,4105,4292,11079,01.373,553
2024-04-05T15:27:51,42.805,6.029,CST-1368DR,4105,4290,11075,01.374,553
2024-04-05T15:30:53,42.805,6.029,CST-1368DR,4105,4288,11069,01.377,553
2024-04-05T15:33:54,42.805,6.029,CST-1368DR,4105,4287,11067,01.377,553
2024-04-05T15:36:56,42.805,6.029,CST-1368DR,4105,4287,11067,01.377,553
2024-04-05T15:39:58,42.805,6.029,CST-1368DR,4105,4285,11062,01.379,553
2024-04-05T15:42:59,42.805,6.029,CST-1368DR,4105,4288,11069,01.377,553
2024-04-05T15:46:01,42.805,6.029,CST-1368DR,4105,4287,11066,01.378,553
2024-04-05T15:49:02,42.805,6.029,CST-1368DR,4105,4288,11070,01.376,553
2024-04-05T15:52:04,42.805,6.029,CST-1368DR,4105,4289,11073,01.375,553
2024-04-05T15:55:05,42.805,6.029,CST-1368DR,4105,4289,11071,01.376,553
2024-04-05T15:58:07,42.805,6.029,CST-1368DR,4105,4284,11058,01.381,553
2024-04-05T16:01:09,42.805,6.029,CST-1368DR,4105,4287,11066,01.378,553
2024-04-05T16:04:10,42.805,6.029,CST-1368DR,4105,4288,11070,01.376,553
2024-04-05T16:07:12,42.805,6.029,CST-1368DR,4105,4286,11065,01.378,553
2024-04-05T16:10:13,42.805,6.029,CST-1368DR,4105,4284,11058,01.381,553
2024-04-05T16:13:15,42.805,6.029,CST-1368DR,4105,4286,11064,01.378,553
2024-04-05T16:16:16,42.805,6.029,CST-1368DR,4105,4288,11069,01.377,553
2024-04-05T16:19:18,42.805,6.029,CST-1368DR,4105,4286,11065,01.378,553
2024-04-05T16:22:20,42.805,6.029,CST-1368DR,4105,4286,11065,01.378,553
2024-04-05T16:25:21,42.805,6.029,CST-1368DR,4105,4285,11062,01.379,553
2024-04-05T16:28:23,42.805,6.029,CST-1368DR,4105,4287,11066,01.378,553
2024-04-05T16:31:24,42.805,6.029,CST-1368DR,4105,4287,11066,01.378,553
2024-04-05T16:34:26,42.805,6.029,CST-1368DR,4105,4287,11066,01.378,553
2024-04-05T16:37:28,42.805,6.029,CST-1368DR,4105,4288,11068,01.377,553